Home > Weather > Fort Bragg > Past weeks

Flag for USA Past Weather in Fort Bragg, California, USA — Yesterday and Last 2 Weeks

Now
81 °F

Sunny.


Feels Like: 80 °F
Forecast: 53 / 65 °F
Wind: 5 mph from North

Location: Ukiah Municipal

Current Time: May 29, 2016 at 12:30:35 PM

Latest Report: May 29, 2016 at 11:56 AM


Visibility: 10 mi

Pressure: 29.93 "Hg

Humidity: 33%

Dew Point: 49 °F

Location of Fort BraggLocation

Past Weather in Fort Bragg — Graph

°F

Fort Bragg Temperature Yesterday

Maximum temperature yesterday: 87 °F (at 3:56 PM)
Minimum temperature yesterday: 51 °F (at 4:56 AM)
Average temperature yesterday: 68 °F

High & Low Weather Summary for the Past Weeks

 TemperatureHumidityPressure
High94 °F (May 18, 1:56 PM)93% (May 22, 2:56 AM)30.09 "Hg (May 22, 2:56 AM)
Low46 °F (May 22, 2:56 AM)17% (May 17, 2:56 PM)29.76 "Hg (May 20, 5:56 AM)
Average63 °F60%29.94 "Hg
* Reported May 14 10:56 AM — May 29 10:56 AM, Fort Bragg, Weather by CustomWeather, © 2016

Note: Actual official high and low records may vary slightly from our data, if they occured in-between our weather recording intervals... More about our weather records

Advertising

Fort Bragg Weather History for the Previous 24 Hours

Scroll right to see more
 ConditionsComfort  
Time TempWeatherWind HumidityBarometerVisibility
10:56 AM
Sun, May 29
76 °FSunny.3 mph39%29.93 "Hg10 mi
9:56 AM71 °FSunny.No wind44%29.95 "Hg10 mi
8:56 AM67 °FSunny.5 mph51%29.95 "Hg10 mi
7:56 AM60 °FSunny.No wind67%29.94 "Hg10 mi
6:56 AM55 °FSunny.No wind80%29.93 "Hg10 mi
5:56 AM52 °FClear.No wind83%29.92 "Hg10 mi
4:56 AM54 °FClear.No wind77%29.89 "Hg10 mi
3:56 AM54 °FClear.No wind77%29.89 "Hg10 mi
2:56 AM56 °FClear.No wind75%29.89 "Hg10 mi
1:56 AM57 °FClear.No wind72%29.89 "Hg10 mi
12:56 AM61 °FClear.No wind60%29.88 "Hg10 mi
11:56 PM
Sat, May 28
62 °FClear.No wind56%29.88 "Hg10 mi
10:56 PM64 °FClear.No wind50%29.88 "Hg10 mi
9:56 PM66 °FClear.No wind47%29.86 "Hg10 mi
8:56 PM71 °FSunny.No wind36%29.84 "Hg10 mi
7:56 PM78 °FSunny.7 mph27%29.82 "Hg10 mi
6:56 PM82 °FSunny.5 mph24%29.80 "Hg10 mi
5:56 PM85 °FSunny.9 mph23%29.79 "Hg10 mi
4:56 PM86 °FSunny.12 mph23%29.78 "Hg10 mi
3:56 PM87 °FSunny.5 mph22%29.79 "Hg10 mi
2:56 PM86 °FSunny.3 mph22%29.80 "Hg10 mi
1:56 PM85 °FSunny.3 mph24%29.81 "Hg10 mi
12:56 PM81 °FSunny.5 mph27%29.83 "Hg10 mi
Weather by CustomWeather, © 2016

See weather overviewHow to use our weather pages